Waarnemingen

Advertentie
Mijn weer
Le Touquet, Frankrijk (7003): temperatuur & dauwpunt: 09.10.2019 21:00:00 - 15.10.2019 21:00:00 (CEST)Le Touquet, Frankrijk (7003): temperatuur 5cm: 09.10.2019 21:00:00 - 15.10.2019 21:00:00 (CEST)Le Touquet, Frankrijk (7003): windsnelheid & windstoten: 09.10.2019 21:00:00 - 15.10.2019 21:00:00 (CEST)Le Touquet, Frankrijk (7003): windrichting: 09.10.2019 21:00:00 - 15.10.2019 21:00:00 (CEST)Le Touquet, Frankrijk (7003): luchtdruk: 09.10.2019 21:00:00 - 15.10.2019 21:00:00 (CEST)Le Touquet, Frankrijk (7003): zicht: 09.10.2019 21:00:00 - 15.10.2019 21:00:00 (CEST)Le Touquet, Frankrijk (7003): Zonneschijnduur: 09.10.2019 21:00:00 - 15.10.2019 21:00:00 (CEST)Le Touquet, Frankrijk (7003): neerslag: 09.10.2019 21:00:00 - 15.10.2019 21:00:00 (CEST)
Datum & Tijd tt [°C] td [°C] tt 5cm [°C] ff [km/u] ff [kn] fx [km/u] fx [kn] dd ppp [hPa] vv [km] sd [min] rr [mm]
15.10.2019 21:00:00 - - - - - - - - - - - -
15.10.2019 20:00:00 13,6 10,0 10,5 5 3 20 11 ZZW 1007,3 60 0 0,0
15.10.2019 19:00:00 14,2 10,6 12,5 6 3 17 9 ZZW 1006,7 60 24 0,0
15.10.2019 18:00:00 14,5 10,7 13,2 10 5 24 13 ZW 1006,4 60 7 0,0
15.10.2019 17:00:00 14,6 10,2 13,5 10 5 31 17 ZW 1006,3 57 7 0,0
15.10.2019 16:00:00 14,8 11,0 15,5 13 7 34 18 ZW 1006,4 54 0 0,0
15.10.2019 15:00:00 14,9 11,1 15,7 14 8 38 21 ZW 1006,3 53 0 0,0
15.10.2019 14:00:00 15,1 11,5 16,1 18 10 36 19 ZW 1006,3 60 30 0,0
15.10.2019 13:00:00 15,1 11,9 14,9 20 11 41 22 ZW 1006,3 20 3 0,2
15.10.2019 12:00:00 14,6 12,3 13,8 17 9 37 20 ZW 1006,3 39 0 0,0
15.10.2019 11:00:00 14,2 12,6 13,1 15 8 31 17 ZZW 1005,6 20 0 0,0
15.10.2019 10:00:00 13,4 12,5 12,7 8 4 16 9 ZZO 1005,5 16 0 0,0
15.10.2019 09:00:00 13,0 12,2 11,6 7 4 13 7 ZZO 1005,0 46 0 0,0
15.10.2019 08:00:00 12,6 11,8 10,8 9 5 15 8 ZZO 1004,7 43 0 0,0
15.10.2019 07:00:00 13,4 12,1 12,0 8 5 19 10 Z 1004,8 58 0 0,0
15.10.2019 06:00:00 14,0 12,9 12,9 10 5 26 14 ZZW 1004,9 60 0 0,0
15.10.2019 05:00:00 14,1 13,3 13,2 10 6 27 15 Z 1004,5 60 0 0,4
15.10.2019 04:00:00 14,1 13,5 13,6 15 8 35 19 ZW 1004,5 3,7 0 0,6
15.10.2019 03:00:00 14,3 13,5 13,5 16 9 36 19 WZW 1004,6 3,0 0 1,2
15.10.2019 02:00:00 15,2 13,7 14,3 16 8 39 21 ZZW 1005,0 57 0 0,0
15.10.2019 01:00:00 15,4 13,9 14,3 14 7 37 20 ZZW 1004,3 20 0 0,0
15.10.2019 00:00:00 15,4 13,9 14,2 18 10 37 20 ZZW 1004,1 56 0 0,0
14.10.2019 23:00:00 15,2 14,2 13,2 14 8 31 17 ZZW 1003,5 60 0 0,0
14.10.2019 22:00:00 14,7 13,7 13,5 9 5 24 13 ZZO 1003,4 60 0 0,0
14.10.2019 21:00:00 14,6 14,0 13,8 13 7 23 12 ZO 1002,7 17 0 3,4
14.10.2019 20:00:00 15,4 14,1 14,4 11 6 79 43 ZZW 1004,5 4,8 0 8,0
14.10.2019 19:00:00 17,9 16,6 16,7 9 5 17 9 ZO 1002,6 10 0 0,4
14.10.2019 18:00:00 18,7 16,3 16,8 11 6 29 15 ZO 1002,9 31 0 0,2
14.10.2019 17:00:00 19,9 15,9 19,3 18 10 29 15 ZO 1002,9 20 2 0,0
14.10.2019 16:00:00 20,1 16,3 20,0 14 7 36 20 ZO 1003,8 44 12 0,0
14.10.2019 15:00:00 20,9 16,3 23,0 19 10 40 21 ZZO 1004,6 20 60 0,0
14.10.2019 14:00:00 19,7 16,0 20,0 16 9 32 17 ZO 1005,7 24 50 0,0
14.10.2019 13:00:00 17,5 15,3 17,7 20 11 38 21 OZO 1006,4 24 16 0,0
14.10.2019 12:00:00 16,9 14,7 15,2 25 13 39 21 OZO 1007,0 19 13 0,0
14.10.2019 11:00:00 15,2 13,7 13,6 18 10 38 21 OZO 1007,6 19 0 0,0
14.10.2019 10:00:00 14,2 12,4 12,5 25 13 46 25 O 1008,4 36 0 4,7
14.10.2019 09:00:00 13,1 12,2 12,5 24 13 42 23 O 1008,3 14 0 4,7
14.10.2019 08:00:00 13,1 12,5 12,4 13 7 21 11 O 1010,1 16 0 0,4
14.10.2019 07:00:00 13,0 12,5 12,1 7 4 14 8 O 1010,7 9 0 0,2
14.10.2019 06:00:00 12,8 12,5 11,8 6 3 14 7 O 1011,6 16 0 0,0
14.10.2019 05:00:00 12,7 12,1 11,7 5 3 14 8 ZZO 1012,2 15 0 0,0
14.10.2019 04:00:00 12,7 11,8 11,1 8 4 14 7 ZO 1011,7 18 0 0,0
14.10.2019 03:00:00 12,6 11,7 11,5 5 3 8 4 OZO 1012,4 17 0 0,0
14.10.2019 02:00:00 12,9 12,0 11,6 8 4 13 7 OZO 1012,9 19 0 0,0
14.10.2019 01:00:00 14,1 11,4 11,6 4 2 14 8 WZW 1013,1 20 0 0,0
14.10.2019 00:00:00 14,6 11,2 11,5 8 4 20 11 W 1012,3 47 0 0,0
13.10.2019 23:00:00 14,8 11,2 11,5 11 6 26 14 W 1012,0 20 0 0,0
13.10.2019 22:00:00 15,1 12,2 12,1 13 7 33 18 W 1011,3 20 0 0,0
13.10.2019 21:00:00 15,4 12,9 13,3 15 8 30 16 W 1010,3 18 0 0,0
13.10.2019 20:00:00 15,5 14,0 13,6 10 6 29 16 W 1009,7 16 0 0,0
13.10.2019 19:00:00 15,5 14,7 14,8 13 7 29 16 WZW 1008,8 14 0 1,2
13.10.2019 18:00:00 15,6 14,5 14,8 13 7 46 25 WZW 1007,9 17 0 0,0
13.10.2019 17:00:00 15,5 14,0 14,8 18 10 53 29 W 1007,2 16 0 5,5
13.10.2019 16:00:00 19,0 15,3 17,4 22 12 45 24 ZZW 1005,4 16 0 0,0
13.10.2019 15:00:00 19,0 16,2 17,3 17 9 44 24 ZZW 1005,1 20 0 0,0
13.10.2019 14:00:00 19,2 15,9 18,3 22 12 55 30 ZZW 1005,0 20 0 0,0
13.10.2019 13:00:00 19,8 15,9 18,8 23 12 51 28 ZZW 1004,4 34 0 0,0
13.10.2019 12:00:00 19,5 16,3 17,6 16 9 31 17 Z 1004,1 20 11 0,0
13.10.2019 11:00:00 18,0 15,8 16,3 11 6 24 13 ZZO 1004,5 20 0 0,0
13.10.2019 10:00:00 16,8 14,3 14,6 14 8 27 15 ZZO 1004,8 35 3 0,0
13.10.2019 09:00:00 15,0 13,9 12,6 11 6 19 10 ZO 1005,1 15 3 0,0
13.10.2019 08:00:00 14,4 13,3 13,1 12 6 22 12 ZO 1005,1 14 0 0,0
13.10.2019 07:00:00 15,3 13,8 13,5 12 6 23 12 ZZO 1005,8 20 0 0,0
13.10.2019 06:00:00 14,6 13,5 12,1 8 4 18 10 ZZO 1005,9 17 0 0,0
13.10.2019 05:00:00 14,6 13,3 12,2 6 4 21 11 ZZO 1006,7 19 0 0,0
13.10.2019 04:00:00 15,4 13,6 12,6 10 6 20 11 ZZO 1006,8 20 0 0,2
13.10.2019 03:00:00 16,6 14,1 14,0 11 6 27 15 Z 1007,3 38 0 0,0
13.10.2019 02:00:00 17,1 14,4 14,0 12 6 27 15 Z 1007,4 38 0 0,0
13.10.2019 01:00:00 15,7 14,2 12,4 10 5 20 11 Z 1008,1 35 0 0,0
13.10.2019 00:00:00 14,7 13,9 11,9 7 4 13 7 ZZO 1008,3 20 0 0,0
12.10.2019 23:00:00 14,2 13,9 12,1 8 4 13 7 ZZO 1008,5 16 0 0,0
12.10.2019 22:00:00 14,3 14,0 10,5 8 4 13 7 ZO 1008,6 5 0 0,0
12.10.2019 21:00:00 14,6 14,1 12,1 0 0 8 4 N 1008,5 1,9 0 0,0
12.10.2019 20:00:00 15,0 14,5 14,3 0 0 10 5 N 1009,0 7 0 0,0
12.10.2019 19:00:00 14,8 14,2 14,4 0 0 9 5 N 1008,6 12 0 0,0
12.10.2019 18:00:00 15,1 14,5 15,4 0 0 7 4 N 1008,5 19 0 0,0
12.10.2019 17:00:00 14,8 14,2 16,0 6 4 13 7 NNW 1009,1 2,6 0 0,4
12.10.2019 16:00:00 15,1 14,3 15,5 6 4 21 11 NNW 1009,3 8 0 0,0
12.10.2019 15:00:00 16,1 14,6 15,4 8 4 24 13 WNW 1009,4 19 0 0,0
12.10.2019 14:00:00 15,7 14,2 15,1 10 5 37 20 W 1009,9 13 0 0,2
12.10.2019 13:00:00 16,5 13,4 16,3 17 9 43 23 ZW 1009,9 46 4 0,0
12.10.2019 12:00:00 16,9 13,8 16,3 20 11 43 23 ZZW 1009,5 37 1 0,0
12.10.2019 11:00:00 16,1 13,4 15,7 16 9 39 21 ZZW 1009,3 20 0 0,0
12.10.2019 10:00:00 16,1 13,4 15,0 16 9 44 24 ZZW 1008,9 46 0 0,0
12.10.2019 09:00:00 15,7 13,2 15,0 19 11 41 22 ZZW 1008,6 12 0 0,0
12.10.2019 08:00:00 15,7 13,0 15,0 19 10 42 23 ZZW 1008,2 45 0 0,0
12.10.2019 07:00:00 15,8 13,3 15,0 18 10 40 22 ZZW 1008,1 47 0 0,0
12.10.2019 06:00:00 15,8 13,1 14,8 18 10 43 23 ZZW 1008,1 42 0 0,0
12.10.2019 05:00:00 16,0 13,1 15,2 18 10 41 22 ZW 1008,1 41 0 0,0
12.10.2019 04:00:00 16,1 13,4 15,2 19 10 45 25 ZW 1008,3 19 0 0,0
12.10.2019 03:00:00 16,4 13,1 15,4 19 11 45 24 ZW 1008,5 47 0 0,0
12.10.2019 02:00:00 16,8 13,3 15,9 19 11 47 25 ZW 1008,7 44 0 0,0
12.10.2019 01:00:00 17,3 13,4 16,1 22 12 51 28 ZW 1008,7 44 0 0,0
12.10.2019 00:00:00 17,3 13,4 15,6 18 10 42 23 ZZW 1008,6 19 0 0,0
11.10.2019 23:00:00 17,2 13,1 15,6 19 10 48 26 Z 1008,7 20 0 0,0
11.10.2019 22:00:00 17,6 13,3 16,4 17 9 45 24 ZZW 1009,2 58 0 0,0
11.10.2019 21:00:00 17,3 13,8 16,3 17 9 40 22 ZZW 1009,1 19 0 0,0
11.10.2019 20:00:00 17,5 13,8 16,5 16 9 45 24 ZW 1009,4 20 0 0,0
11.10.2019 19:00:00 17,4 13,9 16,5 19 10 41 22 ZZW 1009,5 45 0 0,0
11.10.2019 18:00:00 17,4 13,9 16,6 17 9 39 21 ZZW 1009,7 20 0 0,0
11.10.2019 17:00:00 17,4 13,9 16,8 19 10 41 22 ZZW 1010,0 49 0 0,0
11.10.2019 16:00:00 17,6 13,7 17,6 23 12 49 26 ZW 1010,0 33 0 0,0
11.10.2019 15:00:00 17,5 13,6 16,5 21 11 53 28 ZW 1010,5 20 0 0,0
11.10.2019 14:00:00 17,0 13,1 15,1 20 11 44 24 ZZW 1011,2 42 0 0,0
11.10.2019 13:00:00 16,3 13,0 16,0 21 11 56 30 ZZW 1012,0 19 0 0,0
11.10.2019 12:00:00 16,0 12,9 15,6 24 13 53 28 ZZW 1012,1 44 0 0,0
11.10.2019 11:00:00 15,9 13,0 15,2 24 13 48 26 ZZW 1012,3 20 0 0,0
11.10.2019 10:00:00 15,6 13,1 15,1 25 13 50 27 ZW 1012,5 17 0 0,0
11.10.2019 09:00:00 15,7 12,8 14,7 19 10 43 23 ZZW 1012,2 20 0 0,0
11.10.2019 08:00:00 15,4 12,9 14,6 19 10 49 26 ZZW 1012,3 20 0 0,0
11.10.2019 07:00:00 15,4 12,9 14,7 20 11 45 25 ZZW 1012,9 44 0 0,0
11.10.2019 06:00:00 15,4 13,2 14,6 21 11 44 24 ZW 1013,4 19 0 0,0
11.10.2019 05:00:00 15,2 13,0 14,6 17 9 36 19 ZZW 1013,6 17 0 0,0
11.10.2019 04:00:00 15,4 12,9 14,6 18 10 35 19 ZW 1014,0 16 0 0,0
11.10.2019 03:00:00 15,3 12,4 14,0 16 9 43 23 ZW 1014,4 17 0 0,0
11.10.2019 02:00:00 15,2 11,8 14,2 21 11 45 24 ZZW 1014,3 19 0 0,0
11.10.2019 01:00:00 15,5 11,5 14,5 22 12 49 26 ZW 1014,5 18 0 0,0
11.10.2019 00:00:00 15,4 11,2 13,6 20 11 42 23 ZW 1014,9 18 0 0,0
10.10.2019 23:00:00 15,4 11,2 14,1 18 10 49 27 ZW 1015,0 19 0 0,0
10.10.2019 22:00:00 15,7 11,3 13,4 20 11 55 30 ZW 1015,6 16 0 0,0
10.10.2019 21:00:00 15,2 10,4 13,5 23 12 59 32 WZW 1015,6 16 0 0,0
10.10.2019 20:00:00 15,7 10,5 13,8 27 14 61 33 WZW 1016,0 17 0 0,0
10.10.2019 19:00:00 15,4 10,8 14,0 23 12 50 27 WZW 1015,9 15 5 0,0
10.10.2019 18:00:00 16,1 10,6 14,4 23 13 51 28 W 1015,6 17 13 0,0
10.10.2019 17:00:00 16,0 10,5 15,4 26 14 55 30 WZW 1015,7 19 22 0,0
10.10.2019 16:00:00 16,5 9,9 15,6 24 13 56 31 WZW 1015,8 17 46 0,0
10.10.2019 15:00:00 16,1 9,7 16,8 23 12 51 27 W 1015,7 18 23 0,0
10.10.2019 14:00:00 16,6 9,8 16,4 24 13 51 27 W 1015,5 20 42 0,0
10.10.2019 13:00:00 16,1 9,3 17,7 23 13 46 25 W 1015,6 19 41 0,2
10.10.2019 12:00:00 15,8 10,1 15,8 22 12 47 25 W 1015,1 13 55 0,0
10.10.2019 11:00:00 15,0 9,8 13,8 22 12 48 26 WNW 1014,6 20 20 0,0
10.10.2019 10:00:00 14,9 8,8 12,3 21 12 48 26 WNW 1013,9 15 21 0,0
10.10.2019 09:00:00 14,4 8,8 9,9 20 11 42 23 W 1013,1 27 12 0,0
10.10.2019 08:00:00 13,4 8,5 9,3 19 10 43 23 WNW 1012,5 31 0 0,0
10.10.2019 07:00:00 13,4 7,8 9,4 24 13 48 26 WNW 1011,5 35 0 0,0
10.10.2019 06:00:00 13,3 7,9 9,5 21 12 50 27 WNW 1011,0 38 0 0,0
10.10.2019 05:00:00 13,5 8,5 9,1 20 11 41 22 WNW 1010,6 39 0 0,0
10.10.2019 04:00:00 13,0 7,7 9,4 20 11 55 30 WNW 1009,5 42 0 0,0
10.10.2019 03:00:00 13,6 8,2 9,9 22 12 58 31 WNW 1009,2 38 0 0,0
10.10.2019 02:00:00 14,1 8,7 10,5 23 13 55 30 WNW 1008,5 33 0 0,0
10.10.2019 01:00:00 14,0 8,6 10,3 18 10 41 22 WNW 1008,1 38 0 0,0
10.10.2019 00:00:00 13,6 9,0 10,2 18 10 44 24 W 1007,8 38 0 0,4
09.10.2019 23:00:00 13,0 9,8 10,7 16 9 40 22 WZW 1007,7 28 0 0,2
09.10.2019 22:00:00 12,7 9,3 10,6 19 10 48 26 W 1008,1 22 0 0,6
09.10.2019 21:00:00 13,6 10,0 10,3 22 12 57 31 W 1008,3 14 0 0,0

tt = temperatuur
td = dauwpunt
tt 5cm = temperatuur 5cm
ff = windsnelheid
fx = windstoten
dd = windrichting
ppp = luchtdruk
vv = zicht
sd = Zonneschijnduur
rr = neerslag

Weerstations in de omgeving